This demonstration page uses our WeatherBlox Daily Observations layout. Learn more.

Left ArrowRight Arrow

47.50024, -111.30081

Hourly Observations for April 24, 2016

Temp ( °F °C ) Dew Point ( °F °C ) Humidity (%) Winds ( mph kmh ) Pressure ( in mb ) Visibility ( mi km ) Precip ( " mm )
12:11 am 00:11 Cloudy with Light Rain 41 5 39 3.9 93 93 NW 7 11 29.85 1011 8 13 0.00 0.03
12:53 am 00:53 Cloudy with Light Rain 41 5 39 3.9 93 93 NW 7 11 29.88 1012 10 16 0.01 0.25
1:53 am 01:53 Cloudy with Mist and Fog 41 5 39 3.9 93 93 NW 8 13 29.88 1012 6 10 0.00 0.03
2:53 am 02:53 Cloudy 41 5 39 3.9 93 93 NW 7 11 29.87 1012 10 16 0.01 0.25
3:53 am 03:53 Cloudy with Light Rain 40 4.4 38 3.3 93 93 WNW 6 9 29.88 1012 10 16 0.00 0.03
4:53 am 04:53 Cloudy 40 4.4 38 3.3 93 93 NW 7 11 29.88 1012 10 16 0.00 0.03
5:53 am 05:53 Cloudy 40 4.4 39 3.9 97 97 WNW 3 6 29.90 1012 9 14 0.00 0.00
6:50 am 06:50 Cloudy with Light Rain 39 4 37 3 93 93 WNW 8 13 29.88 1012 8 13 0.00 0.00
6:53 am 06:53 Cloudy with Light Rain 40 4.4 38 3.3 93 93 WNW 7 11 29.89 1012 8 13 0.00 0.03
7:42 am 07:42 Cloudy 39 4 37 3 93 93 W 6 9 29.88 1012 9 14 0.00 0.00
7:53 am 07:53 Cloudy 40 4.4 38 3.3 93 93 W 6 9 29.90 1013 9 14 0.01 0.25
8:53 am 08:53 Cloudy with Light Rain 40 4.4 39 3.9 97 97 W 6 9 29.88 1012 7 11 0.00 0.03
9:53 am 09:53 Cloudy 42 5.6 39 3.9 89 89 WNW 7 11 29.87 1012 10 16 0.00 0.03
10:53 am 10:53 Cloudy 43 6.1 39 3.9 86 86 Calm 29.88 1012 10 16 0.00 0.00
11:17 am 11:17 Cloudy 44 6.7 39 3.9 83 83 Calm 29.85 1011 10 16 0.00 0.00
11:53 am 11:53 Cloudy 44 6.7 39 3.9 83 83 Calm 29.88 1012 10 16 0.00 0.00
12:53 pm 12:53 Cloudy 45 7.2 39 3.9 80 80 NE 3 6 29.87 1012 10 16 0.00 0.00
1:27 pm 13:27 Cloudy 46 7.8 40 4.4 79 79 ENE 5 7 29.83 1010 10 16 0.00 0.00
1:48 pm 13:48 Cloudy 46 8 39 4 76 76 NE 7 11 29.83 1010 10 16 0.00 0.00
1:53 pm 13:53 Cloudy 46 7.8 40 4.4 79 79 NE 6 9 29.87 1011 10 16 0.00 0.00
2:00 pm 14:00 Cloudy 46 8 39 4 76 76 ENE 6 9 29.83 1010 10 16 0.00 0.00
2:11 pm 14:11 Cloudy 46 7.8 40 4.4 79 79 Calm 29.83 1010 10 16 0.00 0.00
2:28 pm 14:28 Cloudy 46 8 39 4 76 76 NNE 3 6 29.83 1010 10 16 0.00 0.00
2:53 pm 14:53 Cloudy 47 8.3 40 4.4 77 77 NE 5 7 29.86 1011 10 16 0.00 0.00
3:51 pm 15:51 Cloudy 48 9 41 5 76 76 NNE 5 7 29.77 1008 10 16 0.00 0.00
3:53 pm 15:53 Cloudy 48 8.9 40 4.4 74 74 NNE 3 6 29.85 1011 10 16 0.00 0.00
4:19 pm 16:19 Cloudy 47 8.3 41 5 80 80 N 5 7 29.80 1009 10 16 0.00 0.00
4:53 pm 16:53 Cloudy 47 8.3 41 5 80 80 NE 7 11 29.85 1011 10 16 0.00 0.00
5:53 pm 17:53 Cloudy 48 8.9 41 5 77 77 NE 5 7 29.85 1011 10 16 0.00 0.00
6:08 pm 18:08 Cloudy 46 8 43 6 87 87 ENE 10 17 29.80 1009 10 16 0.00 0.00
6:44 pm 18:44 Cloudy 45 7 41 5 87 87 NE 8 13 29.80 1009 10 16 0.00 0.00
6:53 pm 18:53 Cloudy 45 7.2 41 5 86 86 ENE 8 13 29.86 1011 10 16 0.00 0.00
7:53 pm 19:53 Cloudy 44 6.7 40 4.4 85 85 E 7 11 29.87 1011 10 16 0.00 0.03
8:53 pm 20:53 Cloudy 43 6.1 39 3.9 86 86 E 6 9 29.87 1012 10 16 0.00 0.00
9:53 pm 21:53 Cloudy 43 6.1 39 3.9 86 86 E 8 13 29.87 1012 10 16 0.00 0.00
10:09 pm 22:09 Cloudy 43 6.1 38 3.3 82 82 ENE 7 11 29.85 1011 10 16 0.00 0.00
10:53 pm 22:53 Cloudy 41 5 37 2.8 86 86 ENE 10 17 29.87 1012 10 16 0.00 0.00
11:53 pm 23:53 Cloudy 39 3.9 36 2.2 89 89 ENE 10 17 29.87 1011 10 16 0.00 0.00

Powered by AerisWeather